Powrót do katalogu

ASTROCAST-0402

AktywnyŁącznośćSSO
NORAD 55109·PAYLOAD·🇨🇭 Switzerland

Wystrzelony Jan 3, 2023 z Cape Canaveral Space Force Station

Loading…

Następne Przeloty (najbliższe 24 godziny)

TLE

ŚwieżeSource: Space-Track

Epoka: Sep 14, 2026, 05:08 UTC

1 55109U 23001DE  26257.21423326  .00009662  00000-0  32909-3 0  9990
2 55109  97.5574 351.8619 0003062 281.8763  78.2134 15.30608385158141

Śledź ASTROCAST-0402 w czasie rzeczywistym z AllMySat

Download on the App Store